![]() |
EMODnet Physics ERDDAP
Easier access to scientific data |
log in|
Brought to you by EMODnet Physics |
| Dataset Title: | NDBC - Collection of dew point temperature (DEWT) TimeSeries - IN SITU MultiPointTimeSeriesObservation
|
| Institution: | NDBC (Dataset ID: TS_DEWT_NDBC) |
| Information: | Summary
| License
| FGDC
| ISO 19115
| Metadata
| Background
| Subset
| Data Access Form
| Make a graph
|
| Name | Last modified | Size | Description | |
|---|---|---|---|---|
| Parent Directory | - | - | ||
| UPBC1_TS_DEWT_012014.nc | 28-Oct-2024 01:08 | 429689 | ||
| UPBC1_TS_DEWT_012015.nc | 28-Oct-2024 01:08 | 425758 | ||
| UPBC1_TS_DEWT_012016.nc | 28-Oct-2024 01:08 | 429909 | ||
| UPBC1_TS_DEWT_012017.nc | 28-Oct-2024 01:08 | 429917 | ||
| UPBC1_TS_DEWT_012019.nc | 28-Oct-2024 01:09 | 421764 | ||
| UPBC1_TS_DEWT_012020.nc | 28-Oct-2024 01:09 | 429914 | ||
| UPBC1_TS_DEWT_012021.nc | 28-Oct-2024 01:09 | 429914 | ||
| UPBC1_TS_DEWT_012022.nc | 28-Oct-2024 01:09 | 429911 | ||
| UPBC1_TS_DEWT_012023.nc | 28-Oct-2024 01:09 | 427839 | ||
| UPBC1_TS_DEWT_012024.nc | 28-Oct-2024 01:09 | 429323 | ||
| UPBC1_TS_DEWT_022013.nc | 28-Oct-2024 01:09 | 429906 | ||
| UPBC1_TS_DEWT_022014.nc | 28-Oct-2024 01:09 | 429911 | ||
| UPBC1_TS_DEWT_022015.nc | 28-Oct-2024 01:09 | 429295 | ||
| UPBC1_TS_DEWT_022016.nc | 28-Oct-2024 01:09 | 429909 | ||
| UPBC1_TS_DEWT_022019.nc | 28-Oct-2024 01:09 | 429920 | ||
| UPBC1_TS_DEWT_022020.nc | 28-Oct-2024 01:09 | 1142411 | ||
| UPBC1_TS_DEWT_022021.nc | 28-Oct-2024 01:10 | 909528 | ||
| UPBC1_TS_DEWT_022022.nc | 28-Oct-2024 01:10 | 1265464 | ||
| UPBC1_TS_DEWT_022023.nc | 28-Oct-2024 01:10 | 1263825 | ||
| UPBC1_TS_DEWT_022024.nc | 16-Sep-2024 16:51 | 429350 | ||
| UPBC1_TS_DEWT_032013.nc | 28-Oct-2024 01:10 | 429350 | ||
| UPBC1_TS_DEWT_032014.nc | 28-Oct-2024 01:10 | 429362 | ||
| UPBC1_TS_DEWT_032015.nc | 28-Oct-2024 01:10 | 419663 | ||
| UPBC1_TS_DEWT_032016.nc | 28-Oct-2024 01:10 | 425870 | ||
| UPBC1_TS_DEWT_032017.nc | 28-Oct-2024 01:10 | 426416 | ||
| UPBC1_TS_DEWT_032019.nc | 28-Oct-2024 01:10 | 427726 | ||
| UPBC1_TS_DEWT_032020.nc | 28-Oct-2024 01:10 | 429056 | ||
| UPBC1_TS_DEWT_032021.nc | 28-Oct-2024 01:10 | 429360 | ||
| UPBC1_TS_DEWT_032022.nc | 28-Oct-2024 01:10 | 429368 | ||
| UPBC1_TS_DEWT_032023.nc | 28-Oct-2024 01:10 | 429374 | ||
| UPBC1_TS_DEWT_042013.nc | 28-Oct-2024 01:10 | 429362 | ||
| UPBC1_TS_DEWT_042014.nc | 28-Oct-2024 01:10 | 429364 | ||
| UPBC1_TS_DEWT_042015.nc | 28-Oct-2024 01:11 | 429373 | ||
| UPBC1_TS_DEWT_042017.nc | 28-Oct-2024 01:11 | 429366 | ||
| UPBC1_TS_DEWT_042019.nc | 28-Oct-2024 01:11 | 429367 | ||
| UPBC1_TS_DEWT_042020.nc | 28-Oct-2024 01:11 | 429366 | ||
| UPBC1_TS_DEWT_042021.nc | 28-Oct-2024 01:11 | 429360 | ||
| UPBC1_TS_DEWT_042022.nc | 28-Oct-2024 01:11 | 429570 | ||
| UPBC1_TS_DEWT_042023.nc | 28-Oct-2024 01:11 | 429570 | ||
| UPBC1_TS_DEWT_052013.nc | 28-Oct-2024 01:11 | 429574 | ||
| UPBC1_TS_DEWT_052014.nc | 28-Oct-2024 01:11 | 429574 | ||
| UPBC1_TS_DEWT_052015.nc | 28-Oct-2024 01:11 | 429571 | ||
| UPBC1_TS_DEWT_052016.nc | 28-Oct-2024 01:11 | 429569 | ||
| UPBC1_TS_DEWT_052017.nc | 28-Oct-2024 01:11 | 429570 | ||
| UPBC1_TS_DEWT_052019.nc | 28-Oct-2024 01:11 | 429574 | ||
| UPBC1_TS_DEWT_052020.nc | 28-Oct-2024 01:11 | 429571 | ||
| UPBC1_TS_DEWT_052021.nc | 28-Oct-2024 01:11 | 429573 | ||
| UPBC1_TS_DEWT_052022.nc | 28-Oct-2024 01:12 | 429569 | ||
| UPBC1_TS_DEWT_052023.nc | 28-Oct-2024 01:12 | 429573 | ||
| UPBC1_TS_DEWT_062013.nc | 28-Oct-2024 01:12 | 429571 | ||
| UPBC1_TS_DEWT_062014.nc | 28-Oct-2024 01:12 | 429569 | ||
| UPBC1_TS_DEWT_062015.nc | 28-Oct-2024 01:12 | 994917 | ||
| UPBC1_TS_DEWT_062016.nc | 28-Oct-2024 01:12 | 1055815 | ||
| UPBC1_TS_DEWT_062017.nc | 28-Oct-2024 01:12 | 1111247 | ||
| UPBC1_TS_DEWT_062019.nc | 28-Oct-2024 01:12 | 1112228 | ||
| UPBC1_TS_DEWT_062020.nc | 28-Oct-2024 01:12 | 429683 | ||
| UPBC1_TS_DEWT_062021.nc | 28-Oct-2024 01:12 | 429665 | ||
| UPBC1_TS_DEWT_062022.nc | 28-Oct-2024 01:12 | 429695 | ||
| UPBC1_TS_DEWT_062023.nc | 28-Oct-2024 01:12 | 429689 | ||
| UPBC1_TS_DEWT_072013.nc | 28-Oct-2024 01:12 | 426126 | ||
| UPBC1_TS_DEWT_072014.nc | 28-Oct-2024 01:12 | 429697 | ||
| UPBC1_TS_DEWT_072015.nc | 28-Oct-2024 01:13 | 429688 | ||
| UPBC1_TS_DEWT_072016.nc | 28-Oct-2024 01:13 | 429693 | ||
| UPBC1_TS_DEWT_072017.nc | 28-Oct-2024 01:13 | 429703 | ||
| UPBC1_TS_DEWT_072019.nc | 28-Oct-2024 01:13 | 429675 | ||
| UPBC1_TS_DEWT_072020.nc | 28-Oct-2024 01:13 | 429689 | ||
| UPBC1_TS_DEWT_072021.nc | 28-Oct-2024 01:13 | 429702 | ||
| UPBC1_TS_DEWT_072022.nc | 28-Oct-2024 01:13 | 429692 | ||
| UPBC1_TS_DEWT_072023.nc | 28-Oct-2024 01:13 | 429372 | ||
| UPBC1_TS_DEWT_082013.nc | 28-Oct-2024 01:13 | 429695 | ||
| UPBC1_TS_DEWT_082014.nc | 28-Oct-2024 01:13 | 429689 | ||
| UPBC1_TS_DEWT_082015.nc | 28-Oct-2024 01:13 | 429688 | ||
| UPBC1_TS_DEWT_082016.nc | 28-Oct-2024 01:13 | 429696 | ||
| UPBC1_TS_DEWT_082019.nc | 28-Oct-2024 01:13 | 429696 | ||
| UPBC1_TS_DEWT_082020.nc | 28-Oct-2024 01:13 | 429914 | ||
| UPBC1_TS_DEWT_082021.nc | 28-Oct-2024 01:13 | 429830 | ||
| UPBC1_TS_DEWT_082022.nc | 28-Oct-2024 01:14 | 429912 | ||
| UPBC1_TS_DEWT_082023.nc | 28-Oct-2024 01:14 | 429912 | ||
| UPBC1_TS_DEWT_092013.nc | 28-Oct-2024 01:14 | 429909 | ||
| UPBC1_TS_DEWT_092014.nc | 28-Oct-2024 01:14 | 429917 | ||
| UPBC1_TS_DEWT_092015.nc | 28-Oct-2024 01:14 | 429912 | ||
| UPBC1_TS_DEWT_092016.nc | 28-Oct-2024 01:14 | 429892 | ||
| UPBC1_TS_DEWT_092019.nc | 28-Oct-2024 01:14 | 429909 | ||
| UPBC1_TS_DEWT_092020.nc | 28-Oct-2024 01:14 | 429915 | ||
| UPBC1_TS_DEWT_092022.nc | 28-Oct-2024 01:14 | 429914 | ||
| UPBC1_TS_DEWT_092023.nc | 28-Oct-2024 01:14 | 429911 | ||
| UPBC1_TS_DEWT_102013.nc | 28-Oct-2024 01:14 | 429555 | ||
| UPBC1_TS_DEWT_102014.nc | 28-Oct-2024 01:15 | 429917 | ||
| UPBC1_TS_DEWT_102015.nc | 28-Oct-2024 01:15 | 1143330 | ||
| UPBC1_TS_DEWT_102016.nc | 28-Oct-2024 01:15 | 1265127 | ||
| UPBC1_TS_DEWT_102019.nc | 28-Oct-2024 01:15 | 1267819 | ||
| UPBC1_TS_DEWT_102020.nc | 28-Oct-2024 01:15 | 1265961 | ||
| UPBC1_TS_DEWT_102022.nc | 28-Oct-2024 01:15 | 429349 | ||
| UPBC1_TS_DEWT_102023.nc | 28-Oct-2024 01:15 | 429353 | ||
| UPBC1_TS_DEWT_112013.nc | 28-Oct-2024 01:15 | 429365 | ||
| UPBC1_TS_DEWT_112014.nc | 28-Oct-2024 01:15 | 429367 | ||
| UPBC1_TS_DEWT_112015.nc | 28-Oct-2024 01:15 | 425952 | ||
| UPBC1_TS_DEWT_112016.nc | 28-Oct-2024 01:15 | 429348 | ||
| UPBC1_TS_DEWT_112019.nc | 28-Oct-2024 01:15 | 429369 | ||
| UPBC1_TS_DEWT_112020.nc | 28-Oct-2024 01:15 | 429360 | ||
| UPBC1_TS_DEWT_112022.nc | 28-Oct-2024 01:15 | 426539 | ||
| UPBC1_TS_DEWT_112023.nc | 28-Oct-2024 01:15 | 429373 | ||
| UPBC1_TS_DEWT_122013.nc | 28-Oct-2024 01:15 | 429369 | ||
| UPBC1_TS_DEWT_122014.nc | 28-Oct-2024 01:16 | 429368 | ||
| UPBC1_TS_DEWT_122015.nc | 28-Oct-2024 01:16 | 429375 | ||
| UPBC1_TS_DEWT_122016.nc | 28-Oct-2024 01:16 | 429370 | ||
| UPBC1_TS_DEWT_122019.nc | 28-Oct-2024 01:16 | 429363 | ||
| UPBC1_TS_DEWT_122020.nc | 28-Oct-2024 01:16 | 429371 | ||
| UPBC1_TS_DEWT_122022.nc | 28-Oct-2024 01:16 | 429371 | ||
| UPBC1_TS_DEWT_122023.nc | 28-Oct-2024 01:16 | 429358 | ||